Location: Star Hoppers Observatory
(42.7905°N, 83.6127°W)
Time: 11:56:31
(UTC-04:00)

Amateur Radio Satellites - All Passes

Search period start: 29 July 2015 11:26
Search period end: 30 July 2015 11:26
Location: Star Hoppers Observatory, 42.7905°N, 83.6127°W

Satellite Date Start Highest point End Downlink Frequencies (MHz)
Time Altitude Azimuth
TIGRISAT 29 Jul 11:29:15 11:33:33 74° 258° (WSW) 11:37:58 435.000
ANTELSAT 29 Jul 11:29:34 11:33:53 71° 258° (WSW) 11:38:19 437.575/2403.000
Oscar 11 29 Jul 11:32:03 11:36:24 64° 286° (WNW) 11:40:41 145.826/435.025
AUBIESAT-1 29 Jul 11:32:23 11:33:08 10° 270° (W) 11:33:38 437.475
UKube-1 29 Jul 11:33:40 11:36:53 21° 93° (E) 11:40:11 .
COMPASS 1 29 Jul 11:34:11 11:37:37 23° 292° (WNW) 11:40:56 437.405
POPSAT HIP 1 29 Jul 11:36:59 11:41:03 53° 73° (ENE) 11:45:10 437.405
CUTE 1.7 + AOD 2 29 Jul 11:42:11 11:44:32 14° 296° (WNW) 11:46:41 437.475
QB50P2 29 Jul 11:43:40 11:47:50 66° 75° (ENE) 11:52:03 145.880/145.840
SEEDS 29 Jul 11:44:24 11:47:04 16° 295° (WNW) 11:49:33 437.485
CANX-2 29 Jul 11:51:12 11:52:17 11° 298° (WNW) 11:53:08 2200.000
DX 1 29 Jul 11:56:00 12:00:06 39° 98° (E) 12:04:10 434.975-435.025
ESTCUBE 1 29 Jul 11:57:21 12:00:18 18° 91° (E) 12:03:23 437.505/2401.250
VELOX 1 29 Jul 11:58:16 12:01:52 25° 94° (E) 12:05:30 145.980
BUGSAT 1 29 Jul 11:58:40 12:02:39 57° 74° (ENE) 12:06:38 437.445
CINEMA 3 29 Jul 11:59:38 12:02:53 19° 294° (WNW) 12:06:03 145.822/145.860
HUMSAT D 29 Jul 12:03:59 12:08:20 75° 103° (ESE) 12:12:39 437.325/437.525
PCSat 29 Jul 12:09:13 12:14:01 31° 312° (NW) 12:18:46 145.827
DUCHIFAT 1 29 Jul 12:12:05 12:16:14 63° 259° (W) 12:20:24 145.980
QB50P1 29 Jul 12:12:49 12:16:57 59° 259° (W) 12:21:08 145.935-145.965
YUBILEINY 29 Jul 12:13:24 12:21:55 51° 74° (ENE) 12:30:28 435.215
NANOSAT C BR1 29 Jul 12:15:26 12:19:33 56° 260° (W) 12:23:41 145.865
HO-68 29 Jul 12:16:27 12:21:40 21° 304° (NW) 12:26:38 435.675
UNISAT 6 29 Jul 12:22:33 12:25:48 20° 268° (W) 12:29:01 437.425
ZACube-1 29 Jul 12:26:36 12:30:31 29° 291° (WNW) 12:34:24 437.345
DELFI C3 29 Jul 12:27:36 12:30:48 22° 292° (WNW) 12:33:54 145.870
50 SAT 29 Jul 12:41:36 12:45:37 86° 284° (WNW) 12:49:36 437.505
UWE-3 29 Jul 12:43:56 12:46:52 17° 295° (WNW) 12:49:42 435.000/436.395/437.385
SO-50 29 Jul 12:45:15 12:49:06 23° 320° (NW) 12:52:57 436.795
Cosmos 2491 29 Jul 12:47:12 12:55:01 39° 87° (E) 13:02:57 435.465 / 435.565
FUNcube-1 29 Jul 12:50:28 12:53:35 18° 294° (WNW) 12:56:35 145.935
CUBEBUG 2 29 Jul 12:53:50 12:55:25 11° 298° (WNW) 12:56:47 437.445
AISAT 29 Jul 12:54:02 12:58:28 80° 284° (WNW) 13:02:53 437.250
POLYITAN 1 29 Jul 12:55:28 12:58:41 20° 267° (W) 13:01:48 437.675
TISAT 1 29 Jul 12:58:01 12:59:08 11° 88° (E) 13:00:30 437.305
Cosmos 2504 29 Jul 13:01:51 13:05:01 13° 55° (NE) 13:08:50 435.465 / 435.565
O/OREOS (USA 219) 29 Jul 13:02:04 13:06:40 82° 248° (WSW) 13:11:15 437.305
AIST 1 29 Jul 13:02:07 13:06:15 43° 93° (E) 13:10:24
UKube-1 29 Jul 13:09:10 13:13:09 36° 290° (WNW) 13:17:05 .
POPSAT HIP 1 29 Jul 13:15:10 13:17:20 13° 271° (W) 13:19:18 437.405
CUBEBUG 1 29 Jul 13:18:26 13:22:46 76° 285° (WNW) 13:27:04 437.445
QB50P2 29 Jul 13:23:06 13:24:16 11° 273° (W) 13:25:11 145.880/145.840
DX 1 29 Jul 13:32:52 13:36:06 20° 294° (WNW) 13:39:14 434.975-435.025
ESTCUBE 1 29 Jul 13:33:08 13:37:28 46° 288° (WNW) 13:41:44 437.505/2401.250
VELOX 1 29 Jul 13:34:31 13:38:27 31° 291° (WNW) 13:42:19 145.980
BUGSAT 1 29 Jul 13:37:02 13:38:34 12° 271° (W) 13:39:51 437.445
HUMSAT D 29 Jul 13:41:54 13:43:30 12° 297° (WNW) 13:44:55 437.325/437.525
Oscar 19 29 Jul 13:44:09 13:49:03 50° 71° (ENE) 13:54:02 437.125/150
SWISSCUBE 29 Jul 14:01:39 14:02:38 11° 86° (E) 14:03:55 437.505
SPROUT 29 Jul 14:06:46 14:11:04 75° 285° (WNW) 14:15:21 437.525
YUBILEINY 29 Jul 14:10:39 14:18:34 37° 274° (W) 14:26:18 435.215
Gurwin Techsat 1B 29 Jul 14:18:17 14:22:56 33° 68° (ENE) 14:27:42 435.225
ITUPSAT 1 29 Jul 14:19:34 14:22:18 15° 89° (E) 14:25:14 437.325
AO-7 29 Jul 14:28:27 14:33:33 19° 49° (NE) 14:38:58 29.400- 29.500
TISAT 1 29 Jul 14:31:13 14:35:24 65° 286° (WNW) 14:39:34 437.305
AIST 1 29 Jul 14:41:15 14:44:11 17° 291° (WNW) 14:46:59
Cosmos 2491 29 Jul 14:43:21 14:51:47 48° 287° (WNW) 15:00:08 435.465 / 435.565
Cosmos 2504 29 Jul 14:51:01 14:59:15 62° 78° (ENE) 15:07:48 435.465 / 435.565
ITAMSAT 1 29 Jul 14:57:58 15:03:09 67° 72° (ENE) 15:08:21 435.822/435.867
BEESAT 29 Jul 15:16:20 15:21:04 58° 100° (E) 15:25:47 436.000
KKS-1 29 Jul 15:23:38 15:24:53 11° 88° (E) 15:26:24 437.445
Oscar 19 29 Jul 15:24:56 15:28:46 20° 269° (W) 15:32:27 437.125/150
JAS-2 29 Jul 15:27:02 15:32:45 49° 68° (ENE) 15:39:17 435.910
HORYU 2 29 Jul 15:27:31 15:30:23 18° 64° (ENE) 15:33:24 437.375
SWISSCUBE 29 Jul 15:36:24 15:41:12 82° 287° (WNW) 15:45:58 437.505
ITUPSAT 1 29 Jul 15:55:56 16:00:39 59° 288° (WNW) 16:05:20 437.325
Gurwin Techsat 1B 29 Jul 15:58:07 16:02:55 33° 264° (W) 16:07:41 435.225
DANDE 29 Jul 16:01:48 16:04:34 22° 76° (ENE) 16:08:01 436.750
AO-7 29 Jul 16:16:48 16:25:06 73° 69° (ENE) 16:33:28 29.400- 29.500
STARS 29 Jul 16:38:31 16:42:44 43° 99° (E) 16:46:58 437.465
ITAMSAT 1 29 Jul 16:40:02 16:43:13 16° 271° (W) 16:46:11 435.822/435.867
CUSAT 1 29 Jul 16:43:00 16:46:48 70° 261° (W) 16:51:52 437.405
Cosmos 2504 29 Jul 16:44:01 16:51:02 30° 275° (W) 16:58:01 435.465 / 435.565
GONETS M04 29 Jul 16:55:03 17:01:26 23° 61° (ENE) 17:08:08
BEESAT 29 Jul 16:55:21 16:58:30 17° 297° (WNW) 17:01:28 436.000
KKS-1 29 Jul 16:57:39 17:02:06 71° 285° (WNW) 17:06:31 437.445
HORYU 2 29 Jul 17:02:21 17:06:40 49° 261° (W) 17:11:02 437.375
JAS-2 29 Jul 17:13:10 17:18:15 28° 270° (W) 17:23:46 435.910
SWISSCUBE 29 Jul 17:17:27 17:18:21 10° 301° (WNW) 17:18:59 437.505
MOZHAYETS 4 29 Jul 17:26:46 17:30:48 30° 94° (E) 17:34:52
PCSat 29 Jul 17:31:49 17:32:23 10° 29° (NNE) 17:33:10 145.827
CUTE-I 29 Jul 17:44:21 17:48:00 20° 62° (ENE) 17:51:50 437.470
DANDE 29 Jul 17:44:47 17:47:38 22° 263° (W) 17:51:00 436.750
SO-50 29 Jul 17:54:56 17:57:40 15° 33° (NNE) 18:00:31 436.795
AO-7 29 Jul 18:11:59 18:18:45 25° 269° (W) 18:25:13 29.400- 29.500
STARS 29 Jul 18:15:42 18:18:54 19° 295° (WNW) 18:22:00 437.465
Cubesat XI-IV 29 Jul 18:25:47 18:30:49 43° 69° (ENE) 18:35:55 437.490
Cosmos 2499 29 Jul 18:42:22 18:49:17 27° 64° (ENE) 18:56:37 435.465 / 435.565
GONETS M04 29 Jul 18:50:45 18:59:30 81° 263° (W) 19:08:14
MOZHAYETS 4 29 Jul 19:03:58 19:08:00 29° 291° (WNW) 19:11:56
PCSat 29 Jul 19:12:12 19:17:22 43° 52° (NE) 19:22:32 145.827
CUBESAT XI-V 29 Jul 19:12:33 19:16:40 32° 95° (E) 19:20:48 437.345
HO-68 29 Jul 19:13:28 19:16:49 14° 51° (NE) 19:20:30 435.675
CUTE-I 29 Jul 19:22:21 19:27:39 62° 258° (WSW) 19:33:00 437.470
SO-50 29 Jul 19:34:13 19:39:11 69° 53° (NE) 19:44:02 436.795
PRISM 29 Jul 19:57:52 20:00:57 21° 93° (E) 20:04:06 437.425
Cubesat XI-IV 29 Jul 20:06:39 20:11:08 26° 267° (W) 20:15:30 437.490
STRAND 1 29 Jul 20:09:48 20:14:31 37° 97° (E) 20:19:14 437.568
VERMONT LUNAR 29 Jul 20:20:31 20:22:58 21° 156° (SSE) 20:25:27 437.305
BRITE-PL 29 Jul 20:26:17 20:30:45 75° 76° (ENE) 20:35:00 437.365/2234.400
Cosmos 2499 29 Jul 20:34:41 20:43:21 74° 265° (W) 20:52:11 435.465 / 435.565
RS-15 29 Jul 20:42:41 20:46:09 13° 97° (E) 20:50:42 29.354- 29.394
CUBESAT XI-V 29 Jul 20:50:08 20:54:01 27° 292° (WNW) 20:57:48 437.345
GONETS M04 29 Jul 20:50:08 20:55:07 16° 283° (WNW) 20:59:34
COMPASS 1 29 Jul 20:50:28 20:53:51 25° 68° (ENE) 20:57:20 437.405
GOMX 1 29 Jul 20:51:50 20:56:07 81° 77° (ENE) 21:00:18 467.674
DOVE 4 29 Jul 20:54:23 20:58:25 50° 73° (ENE) 21:02:27 437.250
Oscar 11 29 Jul 20:54:32 20:55:55 12° 62° (ENE) 20:57:32 145.826/435.025
PCSat 29 Jul 20:55:58 21:00:38 29° 250° (WSW) 21:05:10 145.827
HO-68 29 Jul 20:56:21 21:03:24 68° 70° (ENE) 21:10:31 435.675
CUTE 1.7 + AOD 2 29 Jul 20:58:13 21:02:17 46° 73° (ENE) 21:06:25 437.475
SEEDS 29 Jul 21:00:08 21:04:04 39° 72° (ENE) 21:08:04 437.485
CANX-2 29 Jul 21:06:00 21:10:12 63° 75° (ENE) 21:14:28 2200.000
SO-50 29 Jul 21:16:12 21:19:14 16° 250° (WSW) 21:22:03 436.795
CINEMA 3 29 Jul 21:24:29 21:28:26 47° 72° (ENE) 21:32:29 145.822/145.860
PHONESAT 2.4 29 Jul 21:26:33 21:28:12 13° 150° (SSE) 21:29:55 2401.200-2431.200
PRISM 29 Jul 21:32:45 21:36:29 33° 290° (WNW) 21:40:09 437.425
AAUSAT CUBESAT 2 29 Jul 21:33:33 21:37:40 61° 75° (ENE) 21:41:51 437.432
DELFI C3 29 Jul 21:40:28 21:43:36 22° 68° (ENE) 21:46:48 145.870
ZACube-1 29 Jul 21:47:32 21:50:53 24° 68° (ENE) 21:54:22 437.345
STRAND 1 29 Jul 21:49:15 21:53:37 28° 294° (WNW) 21:57:51 437.568
VERMONT LUNAR 29 Jul 21:56:16 21:59:22 50° 172° (S) 22:02:28 437.305
UWE-3 29 Jul 22:04:20 22:08:20 47° 72° (ENE) 22:12:27 435.000/436.395/437.385
FUNcube-1 29 Jul 22:09:53 22:13:46 40° 72° (ENE) 22:17:47 145.935
CUBEBUG 2 29 Jul 22:13:50 22:17:59 78° 77° (ENE) 22:22:15 437.445
AISAT 29 Jul 22:19:32 22:20:43 11° 61° (ENE) 22:22:08 437.250
COMPASS 1 29 Jul 22:25:42 22:29:24 29° 265° (W) 22:33:07 437.405
Oscar 11 29 Jul 22:27:14 22:31:33 76° 258° (WSW) 22:35:55 145.826/435.025
UKube-1 29 Jul 22:29:30 22:32:40 21° 66° (ENE) 22:35:57 .
Cosmos 2499 29 Jul 22:30:39 22:35:16 15° 283° (WNW) 22:39:20 435.465 / 435.565
DOVE 4 29 Jul 22:34:28 22:36:35 13° 271° (W) 22:38:31 437.250
CUTE 1.7 + AOD 2 29 Jul 22:35:45 22:38:30 16° 270° (W) 22:41:05 437.475
M-CUBED/EXP-1 PRIME 29 Jul 22:35:51 22:40:01 29° 99° (E) 22:44:10 437.505
SEEDS 29 Jul 22:36:59 22:40:03 19° 269° (W) 22:43:01 437.485
CUBEBUG 1 29 Jul 22:42:49 22:43:36 11° 62° (ENE) 22:44:37 437.445
CANX-2 29 Jul 22:44:55 22:46:37 12° 273° (W) 22:48:06 2200.000
RS-15 29 Jul 22:45:48 22:56:27 65° 116° (ESE) 23:07:34 29.354- 29.394
HO-68 29 Jul 22:46:10 22:51:47 24° 269° (W) 22:57:12 435.675
DX 1 29 Jul 22:52:19 22:56:20 38° 70° (ENE) 23:00:23 434.975-435.025
HUMSAT D 29 Jul 22:56:19 23:00:21 56° 74° (ENE) 23:04:28 437.325/437.525
Cosmos 2491 29 Jul 22:56:41 23:02:32 20° 59° (ENE) 23:08:46 435.465 / 435.565
VELOX 1 29 Jul 22:56:45 23:00:20 25° 67° (ENE) 23:04:00 145.980
ESTCUBE 1 29 Jul 22:57:57 23:01:06 19° 65° (ENE) 23:04:23 437.505/2401.250
PHONESAT 2.4 29 Jul 23:02:21 23:05:39 39° 165° (SSE) 23:08:58 2401.200-2431.200
CINEMA 3 29 Jul 23:03:38 23:06:01 14° 271° (W) 23:08:15 145.822/145.860
AUBIESAT-1 29 Jul 23:07:39 23:12:18 52° 104° (ESE) 23:16:52 437.475
AIST 1 29 Jul 23:10:07 23:11:44 12° 66° (ENE) 23:13:34
ISS 29 Jul 23:11:07 23:14:20 65° 143° (SE) 23:17:35 145.825
AAUSAT CUBESAT 2 29 Jul 23:12:07 23:13:46 12° 272° (W) 23:15:10 437.432
DELFI C3 29 Jul 23:14:53 23:18:31 31° 264° (W) 23:22:09 145.870
TIGRISAT 29 Jul 23:20:28 23:24:06 23° 93° (E) 23:27:50 435.000
ANTELSAT 29 Jul 23:20:59 23:24:42 24° 93° (E) 23:28:33 437.575/2403.000
ZACube-1 29 Jul 23:23:27 23:27:09 30° 265° (W) 23:30:53 437.345
50 SAT 29 Jul 23:25:53 23:29:41 56° 74° (ENE) 23:33:32 437.505
QB50P2 29 Jul 23:31:09 23:31:33 10° 87° (E) 23:32:13 145.880/145.840
VERMONT LUNAR 29 Jul 23:32:52 23:35:56 49° 189° (S) 23:39:01 437.305
UWE-3 29 Jul 23:42:43 23:45:13 15° 271° (W) 23:47:36 435.000/436.395/437.385
FUNcube-1 29 Jul 23:47:27 23:50:21 18° 269° (W) 23:53:09 145.935
TISAT 1 29 Jul 23:52:10 23:52:44 10° 62° (ENE) 23:53:31 437.305
AISAT 29 Jul 23:52:18 23:56:43 81° 257° (WSW) 00:01:09 437.250
DUCHIFAT 1 29 Jul 23:56:38 23:59:37 19° 92° (E) 00:02:44 145.980
QB50P1 29 Jul 23:57:40 00:00:49 20° 93° (E) 00:04:04 145.935-145.965
NANOSAT C BR1 29 Jul 23:59:58 00:03:11 21° 93° (E) 00:06:30 145.865
UKube-1 30 Jul 00:04:32 00:08:35 38° 262° (W) 00:12:37 .
BEESAT 2 30 Jul 00:08:42 00:09:59 12° 110° (ESE) 00:11:31 435.950
M-CUBED/EXP-1 PRIME 30 Jul 00:10:24 00:14:46 35° 296° (WNW) 00:19:04 437.505
UNISAT 6 30 Jul 00:11:51 00:16:33 78° 103° (ESE) 00:21:16 437.425
CUBEBUG 1 30 Jul 00:15:00 00:19:22 84° 255° (WSW) 00:23:45 437.445
DX 1 30 Jul 00:29:30 00:32:45 20° 267° (W) 00:35:54 434.975-435.025
VELOX 1 30 Jul 00:32:50 00:36:47 31° 264° (W) 00:40:43 145.980
ESTCUBE 1 30 Jul 00:33:19 00:37:41 45° 261° (W) 00:42:03 437.505/2401.250
HUMSAT D 30 Jul 00:34:40 00:36:32 12° 272° (W) 00:38:14 437.325/437.525
POLYITAN 1 30 Jul 00:38:36 00:42:50 59° 100° (E) 00:47:04 437.675
PHONESAT 2.4 30 Jul 00:39:57 00:43:25 60° 181° (S) 00:46:52 2401.200-2431.200
AUBIESAT-1 30 Jul 00:43:04 00:46:38 21° 300° (WNW) 00:50:04 437.475
AIST 1 30 Jul 00:45:42 00:49:55 60° 265° (W) 00:54:05
ISS 30 Jul 00:48:12 00:51:00 26° 342° (NNW) 00:53:48 145.825
BEESAT 3 30 Jul 00:49:40 00:53:29 41° 118° (ESE) 00:57:22 437.485
Cosmos 2491 30 Jul 00:52:07 01:00:53 90° 77° (ENE) 01:09:37 435.465 / 435.565
TIGRISAT 30 Jul 00:56:37 01:00:58 39° 289° (WNW) 01:05:19 435.000
POPSAT HIP 1 30 Jul 00:56:46 01:01:03 89° 285° (WNW) 01:05:19 437.405
ANTELSAT 30 Jul 00:57:16 01:01:36 37° 289° (WNW) 01:05:54 437.575/2403.000
RS-15 30 Jul 00:59:08 01:09:33 44° 322° (NW) 01:20:18 29.354- 29.394
SPROUT 30 Jul 01:01:21 01:05:38 88° 256° (WSW) 01:09:56 437.525
50 SAT 30 Jul 01:03:32 01:04:42 11° 272° (W) 01:05:39 437.505
QB50P2 30 Jul 01:03:45 01:08:01 72° 285° (WNW) 01:12:17 145.880/145.840
SWISSCUBE 30 Jul 01:08:16 01:10:59 16° 62° (ENE) 01:13:54 437.505
VERMONT LUNAR 30 Jul 01:09:58 01:12:19 19° 205° (SSW) 01:14:39 437.305
BUGSAT 1 30 Jul 01:15:05 01:19:10 88° 293° (WNW) 01:23:16 437.445
YUBILEINY 30 Jul 01:15:06 01:23:28 56° 91° (E) 01:31:58 435.215
AIST 2 30 Jul 01:22:19 01:24:59 17° 111° (ESE) 01:27:47 435.215
TISAT 1 30 Jul 01:23:44 01:27:55 80° 257° (WSW) 01:32:08 437.305
ITUPSAT 1 30 Jul 01:27:01 01:30:32 21° 65° (ENE) 01:34:11 437.325
DUCHIFAT 1 30 Jul 01:31:39 01:35:35 38° 289° (WNW) 01:39:30 145.980
QB50P1 30 Jul 01:32:54 01:36:48 35° 289° (WNW) 01:40:40 145.935-145.965
NANOSAT C BR1 30 Jul 01:35:15 01:39:07 34° 290° (WNW) 01:42:56 145.865
BEESAT 2 30 Jul 01:43:27 01:47:33 70° 305° (NW) 01:51:41 435.950
UNISAT 6 30 Jul 01:50:35 01:52:46 13° 298° (WNW) 01:54:45 437.425
Oscar 19 30 Jul 01:55:58 01:59:07 17° 89° (E) 02:02:28 437.125/150
POLYITAN 1 30 Jul 02:15:59 02:18:18 14° 296° (WNW) 02:20:27 437.675
PHONESAT 2.4 30 Jul 02:17:55 02:21:09 35° 198° (SSW) 02:24:21 2401.200-2431.200
KKS-1 30 Jul 02:22:48 02:24:39 13° 62° (ENE) 02:26:41 437.445
BEESAT 30 Jul 02:23:23 02:28:10 73° 74° (ENE) 02:32:59 436.000
ISS 30 Jul 02:25:57 02:28:13 17° 2° (N) 02:30:29 145.825
BEESAT 3 30 Jul 02:28:17 02:31:36 23° 316° (NW) 02:34:53 437.485
Gurwin Techsat 1B 30 Jul 02:35:43 02:37:14 11° 86° (E) 02:39:07 435.225
SWISSCUBE 30 Jul 02:43:36 02:48:22 66° 259° (W) 02:53:10 437.505
Cosmos 2491 30 Jul 02:51:00 02:56:41 19° 281° (W) 03:01:53 435.465 / 435.565
AIST 2 30 Jul 02:59:01 03:03:11 52° 307° (NW) 03:07:23 435.215
ITUPSAT 1 30 Jul 03:03:30 03:08:09 46° 261° (W) 03:12:48 437.325
ITAMSAT 1 30 Jul 03:10:48 03:14:43 22° 92° (E) 03:18:45 435.822/435.867
YUBILEINY 30 Jul 03:13:00 03:20:47 34° 292° (WNW) 03:28:27 435.215
O/OREOS (USA 219) 30 Jul 03:14:56 03:19:24 80° 292° (WNW) 03:23:57 437.305
RS-15 30 Jul 03:17:16 03:25:59 24° 355° (N) 03:34:57 29.354- 29.394
Cosmos 2504 30 Jul 03:23:06 03:29:36 42° 88° (E) 03:36:36 435.465 / 435.565
BEESAT 2 30 Jul 03:24:53 03:26:24 11° 325° (NW) 03:27:47 435.950
Oscar 19 30 Jul 03:33:51 03:38:58 63° 287° (WNW) 03:44:05 437.125/150
STARS 30 Jul 03:36:06 03:40:12 42° 71° (ENE) 03:44:21 437.465
KKS-1 30 Jul 03:56:21 04:00:46 71° 258° (WSW) 04:05:12 437.445
PHONESAT 2.4 30 Jul 03:57:44 03:58:32 11° 212° (SSW) 03:59:13 2401.200-2431.200
ISS 30 Jul 04:02:25 04:05:22 30° 21° (NNE) 04:08:20 145.825
BEESAT 30 Jul 04:04:32 04:06:38 12° 273° (W) 04:08:29 436.000
Gurwin Techsat 1B 30 Jul 04:12:43 04:18:04 89° 296° (WNW) 04:23:24 435.225
AO-7 30 Jul 04:18:46 04:24:40 22° 90° (E) 04:30:55 29.400- 29.500
JAS-2 30 Jul 04:19:15 04:26:43 48° 96° (E) 04:34:13 435.910
MOZHAYETS 4 30 Jul 04:29:26 04:33:28 31° 69° (ENE) 04:37:37
ITAMSAT 1 30 Jul 04:49:32 04:54:31 47° 290° (WNW) 04:59:26 435.822/435.867
HORYU 2 30 Jul 04:52:52 04:56:47 29° 95° (E) 05:00:43 437.375
O/OREOS (USA 219) 30 Jul 04:58:40 04:59:44 11° 314° (NW) 05:00:34 437.305
STARS 30 Jul 05:13:47 05:16:54 18° 269° (W) 05:19:52 437.465
Cosmos 2504 30 Jul 05:15:24 05:21:56 37° 290° (WNW) 05:28:47 435.465 / 435.565
DANDE 30 Jul 05:15:49 05:18:36 23° 98° (E) 05:21:03 436.750
RS-15 30 Jul 05:33:01 05:43:08 34° 28° (NNE) 05:53:49 29.354- 29.394
ISS 30 Jul 05:38:46 05:41:54 44° 220° (SW) 05:45:01 145.825
CUSAT 1 30 Jul 05:53:07 05:56:03 45° 282° (WNW) 05:58:38 437.405
Gurwin Techsat 1B 30 Jul 05:54:49 05:57:22 13° 301° (WNW) 05:59:40 435.225
GONETS M04 30 Jul 05:58:31 06:04:52 24° 82° (E) 06:11:32
JAS-2 30 Jul 06:04:28 06:11:37 41° 294° (WNW) 06:18:44 435.910
MOZHAYETS 4 30 Jul 06:06:43 06:10:43 28° 266° (W) 06:14:41
AO-7 30 Jul 06:10:08 06:18:31 82° 290° (WNW) 06:26:49 29.400- 29.500
CUBESAT XI-V 30 Jul 06:16:35 06:20:49 35° 70° (ENE) 06:25:05 437.345
HORYU 2 30 Jul 06:29:28 06:33:22 29° 292° (WNW) 06:37:13 437.375
Cubesat XI-IV 30 Jul 06:43:29 06:46:30 16° 88° (E) 06:49:46 437.490
PRISM 30 Jul 06:48:59 06:51:52 19° 66° (ENE) 06:54:51 437.425
DANDE 30 Jul 07:00:26 07:01:42 12° 287° (WNW) 07:02:45 436.750
Cosmos 2499 30 Jul 07:23:18 07:27:20 16° 78° (ENE) 07:31:56 435.465 / 435.565
STRAND 1 30 Jul 07:26:16 07:31:19 59° 72° (ENE) 07:36:24 437.568
CUTE-I 30 Jul 07:38:38 07:43:48 50° 99° (E) 07:48:57 437.470
RS-15 30 Jul 07:45:45 07:57:34 85° 56° (NE) 08:09:50 29.354- 29.394
GONETS M04 30 Jul 07:52:15 08:00:58 73° 281° (W) 08:09:41
CUBESAT XI-V 30 Jul 07:54:27 07:58:20 25° 267° (W) 08:02:09 437.345
AO-7 30 Jul 08:04:25 08:10:14 21° 310° (NW) 08:15:44 29.400- 29.500
Cubesat XI-IV 30 Jul 08:21:54 08:27:13 69° 287° (WNW) 08:32:29 437.490
PRISM 30 Jul 08:23:04 08:27:02 40° 262° (W) 08:31:00 437.425
BEESAT 2 30 Jul 08:25:11 08:27:11 13° 37° (NE) 08:29:17 435.950
HO-68 30 Jul 08:28:08 08:28:24 10° 82° (E) 08:29:18 435.675
BRITE-PL 30 Jul 08:30:08 08:33:20 20° 93° (E) 08:36:48 437.365/2234.400
GOMX 1 30 Jul 08:52:34 08:55:58 22° 93° (E) 08:59:39 467.674
DOVE 4 30 Jul 08:53:11 08:55:25 14° 89° (E) 08:57:58 437.250
CANX-2 30 Jul 08:53:20 08:53:58 10° 86° (E) 08:54:52 2200.000
BEESAT 3 30 Jul 09:07:20 09:11:03 33° 48° (NE) 09:14:43 437.485
STRAND 1 30 Jul 09:07:30 09:10:59 17° 270° (W) 09:14:16 437.568
Cosmos 2499 30 Jul 09:11:59 09:19:19 89° 277° (W) 09:27:19 435.465 / 435.565
CUTE-I 30 Jul 09:19:25 09:23:35 23° 296° (WNW) 09:27:38 437.470
CINEMA 3 30 Jul 09:19:50 09:21:27 12° 88° (E) 09:23:23 145.822/145.860
M-CUBED/EXP-1 PRIME 30 Jul 09:24:30 09:28:11 37° 65° (ENE) 09:32:13 437.505
AIST 2 30 Jul 09:42:15 09:45:09 18° 40° (NE) 09:48:05 435.215
SO-50 30 Jul 09:50:41 09:53:52 19° 111° (ESE) 09:57:16 436.795
GONETS M04 30 Jul 09:54:44 09:59:47 16° 305° (NW) 10:04:20
PCSat 30 Jul 09:55:03 09:59:46 32° 111° (ESE) 10:04:34 145.827
AUBIESAT-1 30 Jul 09:55:45 09:59:43 70° 69° (ENE) 10:04:04 437.475
RS-15 30 Jul 09:59:27 10:09:00 28° 256° (WSW) 10:18:16 29.354- 29.394
BEESAT 2 30 Jul 10:01:47 10:05:53 90° 43° (NE) 10:09:55 435.950
CUBEBUG 2 30 Jul 10:04:46 10:07:39 17° 90° (E) 10:10:45 437.445
Cubesat XI-IV 30 Jul 10:05:49 10:06:27 10° 304° (NW) 10:06:46 437.490
COMPASS 1 30 Jul 10:07:43 10:11:43 40° 97° (E) 10:15:41 437.405
BRITE-PL 30 Jul 10:08:02 10:12:02 37° 288° (WNW) 10:16:13 437.365/2234.400
HO-68 30 Jul 10:10:34 10:17:43 66° 103° (ESE) 10:24:52 435.675
Oscar 11 30 Jul 10:14:38 10:17:40 19° 91° (E) 10:20:49 145.826/435.025
CUTE 1.7 + AOD 2 30 Jul 10:18:06 10:22:26 84° 102° (ESE) 10:26:43 437.475
SEEDS 30 Jul 10:18:52 10:23:09 69° 100° (E) 10:27:24 437.485
TIGRISAT 30 Jul 10:20:33 10:23:45 21° 66° (ENE) 10:27:07 435.000
ANTELSAT 30 Jul 10:21:13 10:24:33 22° 66° (ENE) 10:28:01 437.575/2403.000
CANX-2 30 Jul 10:26:10 10:30:29 72° 285° (WNW) 10:34:45 2200.000
DOVE 4 30 Jul 10:29:07 10:33:36 63° 285° (WNW) 10:38:20 437.250
GOMX 1 30 Jul 10:30:08 10:34:15 38° 288° (WNW) 10:38:34 467.674
BEESAT 3 30 Jul 10:45:32 10:48:51 24° 246° (WSW) 10:52:03 437.485
DUCHIFAT 1 30 Jul 10:50:21 10:52:57 17° 65° (ENE) 10:55:41 145.980
AAUSAT CUBESAT 2 30 Jul 10:50:59 10:55:13 78° 284° (WNW) 10:59:23 437.432
QB50P1 30 Jul 10:51:42 10:54:30 18° 66° (ENE) 10:57:25 145.935-145.965
DELFI C3 30 Jul 10:52:46 10:56:24 31° 96° (E) 11:00:02 145.870
NANOSAT C BR1 30 Jul 10:53:46 10:56:37 19° 66° (ENE) 10:59:36 145.865
CINEMA 3 30 Jul 10:54:34 10:59:11 75° 284° (WNW) 11:04:01 145.822/145.860
M-CUBED/EXP-1 PRIME 30 Jul 11:00:10 11:03:11 20° 264° (W) 11:06:17 437.505
Cosmos 2499 30 Jul 11:08:56 11:13:59 18° 302° (WNW) 11:18:53 435.465 / 435.565
ZACube-1 30 Jul 11:10:15 11:14:38 47° 98° (E) 11:19:04 437.345
UNISAT 6 30 Jul 11:11:34 11:15:53 74° 76° (ENE) 11:20:19 437.425
